Regional Weather Roundup
Issued by NWS

Home | Current Version | Previous Version | Text Only | Print | Product List | Glossary On
Versions: 1 2 3 4 5 6 7 8 9 10 11 12 13 14 15 16 17 18 19 20 21 22 23 24 25 26 27 28 29 30 31 32 33 34 35 36 37 38 39 40 41 42 43 44 45 46 47 48 49 50
000
ASUS45 KPSR 210610
RWRAZ

ARIZONA REGIONAL HOURLY WEATHER ROUNDUP
NATIONAL WEATHER SERVICE PHOENIX AZ
1100 PM MST SAT SEP 20 2014

NOTE: FAIR INDICATES FEW OR NO CLOUDS BELOW 12,000 FEET WITH NO
SIGNIFICANT WEATHER AND/OR OBSTRUCTIONS TO VISIBILITY.

AZZ001>003-036-210700-
NORTHWEST ARIZONA

CITY           SKY/WX    TMP DP  RH WIND       PRES   REMARKS
BULLHEAD CITY  CLEAR     91  59  33 CALM      29.79R
KINGMAN        MOCLDY    76  55  48 S5        29.99S
6HR MIN TEMP:  76; 6HR MAX TEMP:  89;

$$

AZZ004>008-015-016-018-210700-
NORTH CENTRAL ARIZONA

CITY           SKY/WX    TMP DP  RH WIND       PRES   REMARKS
GRAND CANYON   CLOUDY    56  54  93 NE7       30.23F
6HR MIN TEMP:  55; 6HR MAX TEMP:  66; 6HR PCP:  0.02;

PRESCOTT       CLOUDY    71  55  56 S3        30.14R
6HR MIN TEMP:  71; 6HR MAX TEMP:  82;

FLAGSTAFF      MOCLDY    60  55  83 SW6       30.28R
6HR MIN TEMP:  59; 6HR MAX TEMP:  72;

PAYSON         MOCLDY    68  59  73 CALM      30.18S
PAGE           CLOUDY    76  52  43 SW3       30.08S
6HR MIN TEMP:  76; 6HR MAX TEMP:  92; 6HR PCP: TRACE;

$$

AZZ009>014-017-210700-
NORTHEAST ARIZONA

CITY           SKY/WX    TMP DP  RH WIND       PRES   REMARKS
WINSLOW        CLOUDY    73  58  59 SW12      30.14R
6HR MIN TEMP:  72; 6HR MAX TEMP:  84; 6HR PCP: TRACE;

SAINT JOHNS    CLOUDY    70  49  47 E7        30.18R
6HR MIN TEMP:  69; 6HR MAX TEMP:  84;

SHOW LOW       CLOUDY    59  54  82 S3        30.25F
$$

AZZ023-210700-
GREATER PHOENIX AREA

CITY           SKY/WX    TMP DP  RH WIND       PRES   REMARKS
PHOENIX        PTCLDY    87  66  49 SE8       29.85R
6HR MIN TEMP:  87; 6HR MAX TEMP:  94;

BUCKEYE          N/A     82  63  51 S5        29.87R
LUKE AFB       PTCLDY    86  71  60 SW7       29.85R
6HR MIN TEMP:  86; 6HR MAX TEMP:  93;

DEER VALLEY    MOCLDY    86  66  51 SE8       29.87R
6HR MIN TEMP:  86; 6HR MAX TEMP:  95;

SCOTTSDALE     MOCLDY    86  67  52 CALM      29.90R
6HR MIN TEMP:  86; 6HR MAX TEMP:  95;

MESA-GATEWAY   MOCLDY    82  68  61 SE7       29.90S
$$

AZZ027-028-210700-
SOUTHWEST MARICOPA COUNTY AND PINAL COUNTY

CITY           SKY/WX    TMP DP  RH WIND       PRES   REMARKS
CASA GRANDE    CLEAR     81  66  61 CALM      29.90S
6HR MIN TEMP:  81; 6HR MAX TEMP:  88;

$$

AZZ503-504-507>509-210700-
SOUTHEAST ARIZONA

CITY           SKY/WX    TMP DP  RH WIND       PRES   REMARKS
TUCSON         CLEAR     79  63  57 S5        30.00R
6HR MIN TEMP:  79; 6HR MAX TEMP:  89;

DAVIS-MONTHAN  CLEAR     76  66  70 S6        29.98S
6HR MIN TEMP:  76; 6HR MAX TEMP:  88;

NOGALES        CLEAR     68  65  90 E5        30.08R
6HR MIN TEMP:  68; 6HR MAX TEMP:  81;

SIERRA VISTA   CLEAR     68  63  84 SW7       30.12S
6HR MIN TEMP:  68; 6HR MAX TEMP:  80; 6HR PCP:  0.01;

DOUGLAS        CLEAR     67  64  90 N5        30.08S
6HR MIN TEMP:  67; 6HR MAX TEMP:  84;

SAFFORD        CLEAR     76  64  66 NE3       29.99R
6HR MIN TEMP:  75; 6HR MAX TEMP:  90; 6HR PCP: TRACE;

$$

AZZ020-021-025-026-031-210700-
SOUTHWEST ARIZONA

CITY           SKY/WX    TMP DP  RH WIND       PRES   REMARKS
YUMA           CLEAR     85  64  49 S8        29.79R
6HR MIN TEMP:  85; 6HR MAX TEMP: 100;

$$

CAZ031-033-041-043-047-048-061-210700-
SOUTHERN CALIFORNIA

CITY           SKY/WX    TMP DP  RH WIND       PRES   REMARKS
DOWNTOWN L.A.  CLEAR     68  60  75 CALM      29.93R
6HR MIN TEMP:  67; 6HR MAX TEMP:  76;

L.A. AIRPORT   PTCLDY    68  63  84 W6        29.94R
6HR MIN TEMP:  68; 6HR MAX TEMP:  73;

SAN DIEGO      PTCLDY    71  60  68 CALM      29.96R
6HR MIN TEMP:  71; 6HR MAX TEMP:  76;

BURBANK        CLEAR     67  57  70 CALM      29.94R
6HR MIN TEMP:  67; 6HR MAX TEMP:  77;

ONTARIO        CLEAR     67  60  78 W6        29.95R
6HR MIN TEMP:  67; 6HR MAX TEMP:  81;

RIVERSIDE      CLEAR     68  61  78 W5        29.95R
6HR MIN TEMP:  68; 6HR MAX TEMP:  80;

PALM SPRINGS   CLEAR     85  55  35 NW12      29.81R
6HR MIN TEMP:  84; 6HR MAX TEMP:  98;

EL CENTRO NAS  CLEAR     85  50  29 W8        29.77R
6HR MIN TEMP:  85; 6HR MAX TEMP: 100;

IMPERIAL       CLEAR     83  53  35 W8        29.76R
6HR MIN TEMP:  83; 6HR MAX TEMP: 100;

BLYTHE         CLEAR     86  57  37 S13       29.79R
6HR MIN TEMP:  86; 6HR MAX TEMP: 101;

NEEDLES        CLEAR     91  53  27 W9        29.79S
6HR MIN TEMP:  91; 6HR MAX TEMP: 101;

$$

NVZ020-UTZ003-210700-
SOUTHERN NEVADA-UTAH

CITY           SKY/WX    TMP DP  RH WIND       PRES   REMARKS
LAS VEGAS      CLOUDY    84  57  39 N7        29.87R THUNDER
6HR MIN TEMP:  84; 6HR MAX TEMP:  96;

SALT LAKE CITY CLOUDY    69  47  45 E10       30.08R
6HR MIN TEMP:  68; 6HR MAX TEMP:  82;

$$

NMZ009-TXZ055-210700-
NEW MEXICO-WEST TEXAS

CITY           SKY/WX    TMP DP  RH WIND       PRES   REMARKS
ALBUQUERQUE    MOCLDY    73  53  49 E8        30.23R
6HR MIN TEMP:  73; 6HR MAX TEMP:  87;

EL PASO        PTCLDY    76  64  66 N3        30.09R
6HR MIN TEMP:  75; 6HR MAX TEMP:  87;

$$


........................KEY........................
SKY/WX - SKY CONDITION/WEATHER
TMP    - TEMPERATURE IN FAHRENHEIT
DP     - DEW POINT IN FAHRENHEIT
RH     - RELATIVE HUMIDITY IN PERCENT
WIND   - DIRECTION AND SPEED IN MILES PER HOUR (MPH)
VRB    - VARIABLE WIND DIRECTION
PRES   - MEAN SEA LEVEL PRESSURE IN INCHES OF MERCURY
         F - FALLING PRESSURE   R - RISING PRESSURE
         S - STEADY PRESSURE
VSB    - VISIBILITY IN MILES
HX     - HEAT INDEX IN FAHRENHEIT
WCI    - WIND CHILL INDEX IN FAHRENHEIT
TC     - TEMPERATURE IN CELSIUS WHICH IS ALSO KNOWN AS
         TEMPERATURE IN CENTIGRADE
AFB    - AIR FORCE BASE
         LUKE AFB IS LUKE AIR FORCE BASE
         DAVIS-MONTHAN IS DAVIS-MONTHAN AIR FORCE BASE
NAS    - NAVAL AIR STATION
         EL CENTRO NAS IS EL CENTRO NAVAL AIR STATION
N/A    - NOT AVAILABLE


USA.gov is the U.S. government's official web portal to all federal, state and local government web resources and services.